Time,TemperatureF,DewpointF,PressureIn,WindDirection,WindDirectionDegrees,WindSpeedMPH,WindSpeedGustMPH,Humidity,HourlyPrecipIn,Conditions,Clouds,dailyrainin,SolarRadiationWatts/m^2,SoftwareType,DateUTC
2013-03-11 00:00:00,62.1,40.5,29.99,SSW,192,8.0,8.0,45,0.00,,,0.00,0,Wunderground v.1.15,2013-03-11 04:00:00,
2013-03-11 00:10:00,62.1,40.5,29.99,SW,215,9.0,9.0,45,0.00,,,0.00,0,Wunderground v.1.15,2013-03-11 04:10:00,
2013-03-11 00:20:00,61.8,40.8,29.98,SSW,200,10.0,10.0,46,0.00,,,0.00,0,Wunderground v.1.15,2013-03-11 04:20:00,
2013-03-11 00:30:00,61.8,41.3,29.98,SSW,201,11.0,11.0,47,0.00,,,0.00,0,Wunderground v.1.15,2013-03-11 04:30:00,
2013-03-11 00:40:00,61.5,41.1,29.98,South,184,12.0,14.0,47,0.00,,,0.00,0,Wunderground v.1.15,2013-03-11 04:40:00,
2013-03-11 00:50:00,61.5,41.1,29.97,South,185,12.0,17.0,47,0.00,,,0.00,0,Wunderground v.1.15,2013-03-11 04:50:00,
2013-03-11 01:00:00,61.5,41.6,29.96,SSW,195,12.0,12.0,48,0.00,,,0.00,0,Wunderground v.1.15,2013-03-11 05:00:00,
2013-03-11 01:10:00,61.2,41.9,29.96,South,177,11.0,11.0,49,0.00,,,0.00,0,Wunderground v.1.15,2013-03-11 05:10:00,
2013-03-11 01:21:00,61.2,42.4,29.95,SSW,192,13.0,13.0,50,0.00,,,0.00,0,Wunderground v.1.15,2013-03-11 05:21:00,
2013-03-11 01:30:00,61.0,42.2,29.95,SSW,210,11.0,11.0,50,0.00,,,0.00,0,Wunderground v.1.15,2013-03-11 05:30:00,
2013-03-11 01:40:00,60.9,42.6,29.95,South,183,10.0,12.0,51,0.00,,,0.00,0,Wunderground v.1.15,2013-03-11 05:40:00,
2013-03-11 01:50:00,60.9,43.1,29.95,SSE,164,11.0,11.0,52,0.00,,,0.00,0,Wunderground v.1.15,2013-03-11 05:50:00,
2013-03-11 02:00:00,60.9,43.6,29.95,South,179,11.0,16.0,53,0.00,,,0.00,0,Wunderground v.1.15,2013-03-11 06:00:00,
2013-03-11 02:10:00,60.9,44.1,29.95,SSW,194,11.0,12.0,54,0.00,,,0.00,0,Wunderground v.1.15,2013-03-11 06:10:00,
2013-03-11 02:21:00,60.7,44.4,29.95,SSW,207,10.0,13.0,55,0.00,,,0.00,0,Wunderground v.1.15,2013-03-11 06:21:00,
2013-03-11 02:30:00,60.9,45.1,29.94,SSW,196,11.0,18.0,56,0.00,,,0.00,0,Wunderground v.1.15,2013-03-11 06:30:00,
2013-03-11 02:40:00,60.7,45.4,29.94,SSW,200,14.0,16.0,57,0.00,,,0.00,0,Wunderground v.1.15,2013-03-11 06:40:00,
2013-03-11 02:50:00,60.5,45.6,29.94,SW,215,12.0,14.0,58,0.00,,,0.00,0,Wunderground v.1.15,2013-03-11 06:50:00,
2013-03-11 03:00:00,60.4,46.0,29.94,SSW,201,12.0,12.0,59,0.00,,,0.00,0,Wunderground v.1.15,2013-03-11 07:00:00,
2013-03-11 03:10:00,60.1,46.2,29.94,South,182,13.0,16.0,60,0.00,,,0.00,0,Wunderground v.1.15,2013-03-11 07:10:00,
2013-03-11 03:21:00,59.9,46.4,29.93,South,169,13.0,16.0,61,0.00,,,0.00,0,Wunderground v.1.15,2013-03-11 07:21:00,
2013-03-11 03:30:00,59.6,46.6,29.93,SSW,196,13.0,16.0,62,0.00,,,0.00,0,Wunderground v.1.15,2013-03-11 07:30:00,
2013-03-11 03:40:00,59.5,47.3,29.93,South,188,11.0,18.0,64,0.00,,,0.00,0,Wunderground v.1.15,2013-03-11 07:40:00,
2013-03-11 03:50:00,59.6,47.4,29.92,SSW,210,12.0,12.0,64,0.00,,,0.00,0,Wunderground v.1.15,2013-03-11 07:50:00,
2013-03-11 04:00:00,59.5,47.7,29.93,South,176,10.0,10.0,65,0.00,,,0.00,0,Wunderground v.1.15,2013-03-11 08:00:00,
2013-03-11 04:10:00,59.5,47.7,29.93,South,178,11.0,11.0,65,0.00,,,0.00,0,Wunderground v.1.15,2013-03-11 08:10:00,
2013-03-11 04:21:00,59.6,48.2,29.92,SSW,195,13.0,13.0,66,0.00,,,0.00,0,Wunderground v.1.15,2013-03-11 08:21:00,
2013-03-11 04:30:00,59.5,48.1,29.92,South,183,13.0,15.0,66,0.00,,,0.00,0,Wunderground v.1.15,2013-03-11 08:30:00,
2013-03-11 04:40:00,59.3,48.3,29.92,SSW,198,12.0,17.0,67,0.00,,,0.00,0,Wunderground v.1.15,2013-03-11 08:40:00,
2013-03-11 04:50:00,59.2,48.6,29.91,SW,225,11.0,11.0,68,0.00,,,0.00,0,Wunderground v.1.15,2013-03-11 08:50:00,
2013-03-11 05:00:00,59.0,48.4,29.90,South,175,10.0,11.0,68,0.00,,,0.00,0,Wunderground v.1.15,2013-03-11 09:00:00,
2013-03-11 05:10:00,58.9,48.7,29.90,SW,218,10.0,10.0,69,0.00,,,0.00,0,Wunderground v.1.15,2013-03-11 09:10:00,
2013-03-11 05:21:00,58.9,48.7,29.90,South,175,14.0,20.0,69,0.00,,,0.00,0,Wunderground v.1.15,2013-03-11 09:21:00,
2013-03-11 05:30:00,58.7,48.9,29.89,SSW,198,11.0,11.0,70,0.00,,,0.00,0,Wunderground v.1.15,2013-03-11 09:30:00,
2013-03-11 05:40:00,58.7,48.9,29.89,SSW,197,13.0,15.0,70,0.00,,,0.00,0,Wunderground v.1.15,2013-03-11 09:40:00,
2013-03-11 06:00:00,58.6,49.2,29.88,South,171,15.0,15.0,71,0.00,,,0.00,0,Wunderground v.1.15,2013-03-11 10:00:00,
2013-03-11 06:10:00,58.6,49.2,29.88,SSE,165,14.0,20.0,71,0.00,,,0.00,0,Wunderground v.1.15,2013-03-11 10:10:00,
2013-03-11 06:20:00,58.4,48.7,29.88,South,184,14.0,22.0,70,0.00,,,0.00,0,Wunderground v.1.15,2013-03-11 10:20:00,
2013-03-11 06:30:00,58.4,49.4,29.88,SSE,168,14.0,16.0,72,0.00,,,0.00,0,Wunderground v.1.15,2013-03-11 10:30:00,
2013-03-11 06:40:00,58.4,49.4,29.88,South,182,14.0,15.0,72,0.00,,,0.00,0,Wunderground v.1.15,2013-03-11 10:40:00,
2013-03-11 06:50:00,58.3,49.3,29.89,South,186,12.0,12.0,72,0.00,,,0.00,0,Wunderground v.1.15,2013-03-11 10:50:00,
2013-03-11 07:00:00,58.4,49.4,29.88,SSW,192,14.0,14.0,72,0.00,,,0.00,0,Wunderground v.1.15,2013-03-11 11:00:00,
2013-03-11 07:10:00,58.3,49.7,29.88,SW,217,14.0,14.0,73,0.00,,,0.00,0,Wunderground v.1.15,2013-03-11 11:10:00,
2013-03-11 07:20:00,58.3,49.7,29.88,South,170,14.0,14.0,73,0.00,,,0.00,0,Wunderground v.1.15,2013-03-11 11:20:00,
2013-03-11 07:30:00,58.4,49.8,29.88,SSE,155,16.0,16.0,73,0.00,,,0.00,0,Wunderground v.1.15,2013-03-11 11:30:00,
2013-03-11 07:40:00,58.3,50.0,29.88,SSE,161,15.0,15.0,74,0.00,,,0.00,0,Wunderground v.1.15,2013-03-11 11:40:00,
2013-03-11 07:51:00,58.3,50.0,29.87,South,182,13.0,15.0,74,0.00,,,0.00,0,Wunderground v.1.15,2013-03-11 11:51:00,
2013-03-11 08:00:00,58.4,50.1,29.85,South,184,13.0,13.0,74,0.00,,,0.00,0,Wunderground v.1.15,2013-03-11 12:00:00,
2013-03-11 08:10:00,58.3,50.0,29.85,South,178,13.0,16.0,74,0.00,,,0.00,0,Wunderground v.1.15,2013-03-11 12:10:00,
2013-03-11 08:20:00,58.4,50.5,29.86,South,169,15.0,15.0,75,0.00,,,0.00,0,Wunderground v.1.15,2013-03-11 12:20:00,
2013-03-11 08:30:00,58.3,50.4,29.85,SSE,150,13.0,18.0,75,0.00,,,0.00,7,Wunderground v.1.15,2013-03-11 12:30:00,
2013-03-11 08:40:00,58.4,50.5,29.85,SSW,194,13.0,13.0,75,0.00,,,0.00,7,Wunderground v.1.15,2013-03-11 12:40:00,
2013-03-11 08:50:00,58.3,50.8,29.84,South,187,14.0,14.0,76,0.00,,,0.00,9,Wunderground v.1.15,2013-03-11 12:50:00,
2013-03-11 09:00:00,58.3,50.8,29.85,South,184,13.0,13.0,76,0.00,,,0.00,9,Wunderground v.1.15,2013-03-11 13:00:00,
2013-03-11 09:10:00,58.4,50.5,29.85,SSE,153,13.0,13.0,75,0.00,,,0.00,11,Wunderground v.1.15,2013-03-11 13:10:00,
2013-03-11 09:20:00,58.6,50.7,29.84,SSE,160,14.0,14.0,75,0.00,,,0.00,19,Wunderground v.1.15,2013-03-11 13:20:00,
2013-03-11 09:30:00,58.7,50.8,29.83,SSW,197,15.0,16.0,75,0.00,,,0.00,25,Wunderground v.1.15,2013-03-11 13:30:00,
2013-03-11 09:40:00,58.7,50.4,29.83,South,183,15.0,25.0,74,0.00,,,0.00,11,Wunderground v.1.15,2013-03-11 13:40:00,
2013-03-11 09:50:00,58.7,50.8,29.84,SSW,204,16.0,16.0,75,0.00,,,0.00,19,Wunderground v.1.15,2013-03-11 13:50:00,
2013-03-11 10:00:00,58.7,50.8,29.83,South,181,15.0,15.0,75,0.00,,,0.00,33,Wunderground v.1.15,2013-03-11 14:00:00,
2013-03-11 10:10:00,58.9,50.6,29.83,South,188,13.0,13.0,74,0.00,,,0.00,42,Wunderground v.1.15,2013-03-11 14:10:00,
2013-03-11 10:20:00,59.2,50.9,29.82,South,171,15.0,17.0,74,0.00,,,0.00,60,Wunderground v.1.15,2013-03-11 14:20:00,
2013-03-11 10:30:00,59.3,51.0,29.82,SSW,201,16.0,17.0,74,0.00,,,0.00,56,Wunderground v.1.15,2013-03-11 14:30:00,
2013-03-11 10:40:00,59.6,50.9,29.82,SSW,193,14.0,14.0,73,0.00,,,0.00,26,Wunderground v.1.15,2013-03-11 14:40:00,
2013-03-11 10:50:00,59.8,51.1,29.83,South,182,15.0,15.0,73,0.00,,,0.00,23,Wunderground v.1.15,2013-03-11 14:50:00,
2013-03-11 11:00:00,59.8,51.5,29.83,South,189,12.0,12.0,74,0.00,,,0.00,18,Wunderground v.1.15,2013-03-11 15:00:00,
2013-03-11 11:10:00,59.6,51.3,29.83,SSW,200,13.0,16.0,74,0.00,,,0.00,19,Wunderground v.1.15,2013-03-11 15:10:00,
2013-03-11 11:20:00,59.8,51.1,29.83,SSW,198,11.0,12.0,73,0.00,,,0.00,33,Wunderground v.1.15,2013-03-11 15:20:00,
2013-03-11 11:30:00,60.1,51.0,29.83,SSW,192,13.0,13.0,72,0.00,,,0.00,26,Wunderground v.1.15,2013-03-11 15:30:00,
2013-03-11 11:40:00,60.1,51.0,29.83,SSW,194,13.0,13.0,72,0.00,,,0.00,25,Wunderground v.1.15,2013-03-11 15:40:00,
2013-03-11 11:50:00,59.3,52.1,29.83,SSW,200,11.0,11.0,77,0.00,,,0.01,11,Wunderground v.1.15,2013-03-11 15:50:00,
2013-03-11 12:00:00,58.6,52.4,29.84,WSW,252,9.0,9.0,80,0.00,,,0.01,7,Wunderground v.1.15,2013-03-11 16:00:00,
2013-03-11 12:10:00,58.0,52.9,29.84,NW,325,4.0,4.0,83,0.44,,,0.04,16,Wunderground v.1.15,2013-03-11 16:10:00,
2013-03-11 12:30:00,56.6,53.4,29.83,SSW,206,4.0,4.0,89,0.07,,,0.10,33,Wunderground v.1.15,2013-03-11 16:30:00,
2013-03-11 12:40:00,56.5,53.6,29.83,SSW,198,4.0,5.0,90,0.10,,,0.12,37,Wunderground v.1.15,2013-03-11 16:40:00,
2013-03-11 12:50:00,56.5,53.9,29.83,SSW,209,5.0,5.0,91,0.13,,,0.15,39,Wunderground v.1.15,2013-03-11 16:50:00,
2013-03-11 13:00:00,56.5,54.2,29.81,SSW,193,5.0,5.0,92,0.09,,,0.16,105,Wunderground v.1.15,2013-03-11 17:00:00,
2013-03-11 13:10:00,56.7,54.4,29.81,SW,219,3.0,4.0,92,0.05,,,0.16,21,Wunderground v.1.15,2013-03-11 17:10:00,
2013-03-11 13:20:00,56.5,54.2,29.82,WNW,298,4.0,4.0,92,0.27,,,0.18,12,Wunderground v.1.15,2013-03-11 17:20:00,
2013-03-11 13:30:00,56.3,54.3,29.82,West,272,3.0,3.0,93,0.23,,,0.22,21,Wunderground v.1.15,2013-03-11 17:30:00,
2013-03-11 13:40:00,56.2,54.2,29.82,NNW,329,2.0,3.0,93,0.33,,,0.26,14,Wunderground v.1.15,2013-03-11 17:40:00,
2013-03-11 13:50:00,56.0,54.0,29.83,SW,229,3.0,5.0,93,0.67,,,0.32,19,Wunderground v.1.15,2013-03-11 17:50:00,
2013-03-11 14:00:00,55.9,53.9,29.84,WSW,238,4.0,4.0,93,0.28,,,0.39,33,Wunderground v.1.15,2013-03-11 18:00:00,
2013-03-11 14:10:00,55.7,53.7,29.84,WSW,240,4.0,4.0,93,0.19,,,0.42,63,Wunderground v.1.15,2013-03-11 18:10:00,
2013-03-11 14:30:00,55.6,53.6,29.81,SSW,205,3.0,4.0,93,0.06,,,0.44,51,Wunderground v.1.15,2013-03-11 18:30:00,
2013-03-11 14:40:00,55.1,53.1,29.81,WSW,255,3.0,4.0,93,0.06,,,0.45,37,Wunderground v.1.15,2013-03-11 18:40:00,
2013-03-11 14:51:00,55.1,53.1,29.81,SSW,192,3.0,4.0,93,0.06,,,0.46,28,Wunderground v.1.15,2013-03-11 18:51:00,
2013-03-11 15:00:00,55.0,53.0,29.82,WSW,247,2.0,3.0,93,0.07,,,0.47,28,Wunderground v.1.15,2013-03-11 19:00:00,
2013-03-11 15:10:00,54.8,52.8,29.82,SSW,212,2.0,3.0,93,0.11,,,0.49,26,Wunderground v.1.15,2013-03-11 19:10:00,
2013-03-11 15:20:00,54.7,52.7,29.80,SW,217,4.0,4.0,93,0.09,,,0.51,21,Wunderground v.1.15,2013-03-11 19:20:00,
2013-03-11 15:30:00,54.7,52.7,29.81,SSW,211,4.0,6.0,93,0.07,,,0.52,19,Wunderground v.1.15,2013-03-11 19:30:00,
2013-03-11 15:40:00,54.4,52.4,29.81,SSW,192,6.0,6.0,93,0.13,,,0.54,21,Wunderground v.1.15,2013-03-11 19:40:00,
2013-03-11 15:50:00,54.1,52.1,29.81,SSW,200,4.0,4.0,93,0.11,,,0.57,19,Wunderground v.1.15,2013-03-11 19:50:00,
2013-03-11 16:00:00,54.2,52.2,29.80,South,191,3.0,3.0,93,0.16,,,0.59,18,Wunderground v.1.15,2013-03-11 20:00:00,
2013-03-11 16:10:00,54.2,52.2,29.80,SSW,209,3.0,7.0,93,0.12,,,0.61,18,Wunderground v.1.15,2013-03-11 20:10:00,
2013-03-11 16:30:00,54.2,52.2,29.78,South,180,6.0,7.0,93,0.08,,,0.65,14,Wunderground v.1.15,2013-03-11 20:30:00,
2013-03-11 16:40:00,54.2,52.5,29.78,SSE,165,9.0,9.0,94,0.15,,,0.68,18,Wunderground v.1.15,2013-03-11 20:40:00,
2013-03-11 16:51:00,53.9,52.2,29.73,South,171,11.0,11.0,94,0.14,,,0.70,49,Wunderground v.1.15,2013-03-11 20:51:00,
2013-03-11 17:00:00,53.9,52.2,29.77,SSW,204,5.0,6.0,94,0.07,,,0.71,37,Wunderground v.1.15,2013-03-11 21:00:00,
2013-03-11 17:10:00,54.1,52.4,29.77,SW,232,6.0,8.0,94,0.00,,,0.71,26,Wunderground v.1.15,2013-03-11 21:10:00,
2013-03-11 17:20:00,53.8,52.1,29.76,WSW,242,5.0,6.0,94,0.00,,,0.71,25,Wunderground v.1.15,2013-03-11 21:20:00,
2013-03-11 17:30:00,53.8,52.1,29.78,SW,218,3.0,4.0,94,0.00,,,0.71,16,Wunderground v.1.15,2013-03-11 21:30:00,
2013-03-11 17:40:00,53.8,52.1,29.78,South,188,5.0,7.0,94,0.00,,,0.71,19,Wunderground v.1.15,2013-03-11 21:40:00,
2013-03-11 18:00:00,53.6,51.9,29.77,South,186,5.0,9.0,94,0.00,,,0.71,19,Wunderground v.1.15,2013-03-11 22:00:00,
2013-03-11 18:10:00,53.6,51.9,29.77,SSW,211,5.0,5.0,94,0.00,,,0.71,5,Wunderground v.1.15,2013-03-11 22:10:00,
2013-03-11 18:21:00,53.6,51.9,29.79,SSW,205,6.0,6.0,94,0.00,,,0.71,0,Wunderground v.1.15,2013-03-11 22:21:00,
2013-03-11 18:30:00,53.2,51.2,29.79,NNW,336,6.0,9.0,93,0.00,,,0.71,7,Wunderground v.1.15,2013-03-11 22:30:00,
2013-03-11 18:40:00,52.0,49.7,29.79,NNW,330,6.0,6.0,92,0.00,,,0.71,5,Wunderground v.1.15,2013-03-11 22:40:00,
2013-03-11 18:50:00,51.1,48.3,29.80,WNW,286,4.0,4.0,90,0.00,,,0.71,14,Wunderground v.1.15,2013-03-11 22:50:00,
2013-03-11 19:00:00,50.8,48.0,29.80,WSW,247,3.0,3.0,90,0.00,,,0.71,21,Wunderground v.1.15,2013-03-11 23:00:00,
2013-03-11 19:10:00,50.8,47.7,29.80,NW,311,3.0,3.0,89,0.00,,,0.71,40,Wunderground v.1.15,2013-03-11 23:10:00,
2013-03-11 19:30:00,50.8,47.1,29.81,WNW,302,4.0,4.0,87,0.00,,,0.71,19,Wunderground v.1.15,2013-03-11 23:30:00,
2013-03-11 19:40:00,50.7,47.0,29.81,NNW,347,2.0,2.0,87,0.00,,,0.71,12,Wunderground v.1.15,2013-03-11 23:40:00,
2013-03-11 19:51:00,50.5,46.8,29.82,WSW,248,2.0,3.0,87,0.00,,,0.71,0,Wunderground v.1.15,2013-03-11 23:51:00,
2013-03-11 20:00:00,50.2,45.9,29.83,West,263,4.0,4.0,85,0.00,,,0.71,0,Wunderground v.1.15,2013-03-12 00:00:00,
2013-03-11 20:10:00,49.9,45.3,29.83,WSW,246,5.0,5.0,84,0.00,,,0.71,0,Wunderground v.1.15,2013-03-12 00:10:00,
2013-03-11 20:20:00,49.6,44.6,29.83,WSW,249,4.0,5.0,83,0.00,,,0.71,0,Wunderground v.1.15,2013-03-12 00:20:00,
2013-03-11 20:30:00,49.5,44.6,29.84,SSW,200,3.0,3.0,83,0.00,,,0.71,0,Wunderground v.1.15,2013-03-12 00:30:00,
2013-03-11 20:40:00,49.4,44.8,29.84,WSW,253,2.0,4.0,84,0.00,,,0.71,0,Wunderground v.1.15,2013-03-12 00:40:00,
2013-03-11 20:50:00,49.2,44.3,29.84,NW,314,2.0,2.0,83,0.00,,,0.71,0,Wunderground v.1.15,2013-03-12 00:50:00,
2013-03-11 21:00:00,48.8,43.2,29.84,NNW,347,4.0,5.0,81,0.00,,,0.71,0,Wunderground v.1.15,2013-03-12 01:00:00,
2013-03-11 21:10:00,48.5,42.6,29.84,NNW,338,4.0,8.0,80,0.00,,,0.71,0,Wunderground v.1.15,2013-03-12 01:10:00,
2013-03-11 21:21:00,48.3,41.8,29.86,NW,304,5.0,5.0,78,0.00,,,0.71,0,Wunderground v.1.15,2013-03-12 01:21:00,
2013-03-11 21:30:00,48.0,41.1,29.86,West,273,4.0,8.0,77,0.00,,,0.71,0,Wunderground v.1.15,2013-03-12 01:30:00,
2013-03-11 21:40:00,47.6,40.7,29.86,NW,305,3.0,3.0,77,0.00,,,0.71,0,Wunderground v.1.15,2013-03-12 01:40:00,
2013-03-11 21:50:00,47.0,40.2,29.86,WSW,256,3.0,4.0,77,0.00,,,0.71,0,Wunderground v.1.15,2013-03-12 01:50:00,
2013-03-11 22:00:00,46.7,39.5,29.87,NW,314,3.0,3.0,76,0.00,,,0.71,0,Wunderground v.1.15,2013-03-12 02:00:00,
2013-03-11 22:10:00,46.1,39.0,29.87,SW,224,2.0,3.0,76,0.00,,,0.71,0,Wunderground v.1.15,2013-03-12 02:10:00,
2013-03-11 22:20:00,45.7,38.9,29.87,West,279,1.0,4.0,77,0.00,,,0.71,0,Wunderground v.1.15,2013-03-12 02:20:00,
2013-03-11 22:30:00,45.4,38.6,29.88,WNW,303,1.0,1.0,77,0.00,,,0.71,0,Wunderground v.1.15,2013-03-12 02:30:00,
2013-03-11 22:40:00,44.9,38.5,29.88,WNW,290,1.0,1.0,78,0.00,,,0.71,0,Wunderground v.1.15,2013-03-12 02:40:00,
2013-03-11 22:50:00,44.5,38.4,29.88,WNW,292,1.0,1.0,79,0.00,,,0.71,0,Wunderground v.1.15,2013-03-12 02:50:00,
2013-03-11 23:00:00,44.1,38.3,29.89,WNW,292,0.0,0.0,80,0.00,,,0.71,0,Wunderground v.1.15,2013-03-12 03:00:00,
2013-03-11 23:10:00,43.6,37.8,29.89,WNW,292,1.0,1.0,80,0.00,,,0.71,0,Wunderground v.1.15,2013-03-12 03:10:00,
2013-03-11 23:21:00,43.2,38.1,29.90,WNW,292,0.0,0.0,82,0.00,,,0.71,0,Wunderground v.1.15,2013-03-12 03:21:00,
2013-03-11 23:30:00,42.6,37.8,29.90,WNW,292,0.0,1.0,83,0.00,,,0.71,0,Wunderground v.1.15,2013-03-12 03:30:00,
2013-03-11 23:40:00,42.2,37.7,29.90,WNW,292,0.0,0.0,84,0.00,,,0.71,0,Wunderground v.1.15,2013-03-12 03:40:00,
2013-03-11 23:50:00,41.8,37.6,29.91,WNW,293,1.0,1.0,85,0.00,,,0.71,0,Wunderground v.1.15,2013-03-12 03:50:00,